Ankeny, IA

11:15 PM CDT on April 24, 2018 (GMT -0500)
Ankeny Regional

Weather History for KIKV - May, 2014

Change the Weather History Date:

Tuesday, May 6, 2014

  Actual Average (KDSM) Record (KDSM)
Temperature  
Mean Temperature 62 °F -  
Max Temperature 75 °F 68 °F 95 °F (1934)
Min Temperature 48 °F 48 °F 28 °F (1947)
Degree Days  
Heating Degree Days 4    
Growing Degree Days 12 (Base 50)    
Moisture  
Dew Point 44 °F    
Average Humidity 48    
Maximum Humidity 62    
Minimum Humidity 38    
Precipitation  
Precipitation 0.00 in - - ()
Sea Level Pressure  
Sea Level Pressure 29.73 in    
Wind  
Wind Speed 15 mph (ESE)    
Max Wind Speed 24 mph    
Max Gust Speed 31 mph    
Visibility 10 miles    
Events      
Averages and records for this station are not official NWS values.
T = Trace of Precipitation, MM = Missing Value Source: NWS Daily Summary

Daily Weather History Graph

Daily Weather History Graph

Search for Another Location

Airport or City:

Astronomy

May. 06, 2014 Rise Set
Actual Time 6:04 AM CDT 8:17 PM CDT
Civil Twilight 5:33 AM CDT 8:48 PM CDT
Nautical Twilight 4:55 AM CDT 9:26 PM CDT
Astronomical Twilight 4:14 AM CDT 10:08 PM CDT
Moon 12:22 PM CDT (5/6) 1:36 AM CDT (5/6)
Length of Visible Light 15h 14m
Length of Day
14h 13m
Waxing Crescent, 46% of the Moon is Illuminated
May 6
Waxing Crescent
May 6
First Quarter
May 14
Full
May 21
Last Quarter
May 28
New

Hourly Weather History & Observations

Time (CDT) Temp. Dew Point Humidity Pressure Visibility Wind Dir Wind Speed Gust Speed Precip Events Conditions
12:15 AM 55.4 °F 37.4 °F 51% 29.87 in 10.0 mi East 11.5 mph 17.3 mph N/A   Clear
12:35 AM 55.4 °F 37.4 °F 51% 29.87 in 10.0 mi ESE 9.2 mph 17.3 mph N/A   Clear
12:55 AM 53.6 °F 37.4 °F 54% 29.88 in 10.0 mi ESE 11.5 mph 18.4 mph N/A   Clear
1:15 AM 53.6 °F 35.6 °F 51% 29.88 in 10.0 mi East 12.7 mph - N/A   Clear
1:35 AM 53.6 °F 35.6 °F 51% 29.87 in 10.0 mi ESE 12.7 mph - N/A   Clear
1:55 AM 51.8 °F 35.6 °F 54% 29.86 in 10.0 mi East 12.7 mph - N/A   Clear
2:15 AM 51.8 °F 35.6 °F 54% 29.86 in 10.0 mi East 11.5 mph - N/A   Clear
2:35 AM 51.8 °F 35.6 °F 54% 29.86 in 10.0 mi East 10.4 mph - N/A   Clear
6:55 AM 48.2 °F 35.6 °F 62% 29.84 in 10.0 mi ESE 16.1 mph - N/A   Clear
7:15 AM 48.2 °F 35.6 °F 62% 29.84 in 10.0 mi ESE 13.8 mph 24.2 mph N/A   Clear
7:35 AM 48.2 °F 35.6 °F 62% 29.83 in 10.0 mi ESE 15.0 mph 25.3 mph N/A   Clear
7:55 AM 50.0 °F 37.4 °F 62% 29.83 in 10.0 mi ESE 20.7 mph - N/A   Clear
8:15 AM 50.0 °F 37.4 °F 62% 29.84 in 10.0 mi ESE 18.4 mph 29.9 mph N/A   Clear
8:55 AM 53.6 °F 37.4 °F 54% 29.83 in 10.0 mi ESE 18.4 mph 25.3 mph N/A   Clear
9:15 AM 55.4 °F 39.2 °F 54% 29.83 in 10.0 mi ESE 16.1 mph 25.3 mph N/A   Clear
9:35 AM 55.4 °F 39.2 °F 54% 29.81 in 10.0 mi ESE 23.0 mph - N/A   Clear
9:55 AM 57.2 °F 39.2 °F 51% 29.82 in 10.0 mi ESE 19.6 mph 28.8 mph N/A   Clear
10:15 AM 59.0 °F 41.0 °F 51% 29.81 in 10.0 mi ESE 20.7 mph 27.6 mph N/A   Clear
10:35 AM 59.0 °F 41.0 °F 51% 29.79 in 10.0 mi ESE 20.7 mph 27.6 mph N/A   Clear
10:55 AM 60.8 °F 41.0 °F 48% 29.78 in 10.0 mi ESE 24.2 mph 31.1 mph N/A   Clear
11:15 AM 62.6 °F 42.8 °F 48% 29.78 in 10.0 mi East 21.9 mph - N/A   Clear
11:35 AM 62.6 °F 42.8 °F 48% 29.77 in 10.0 mi ESE 17.3 mph 29.9 mph N/A   Clear
11:55 AM 64.4 °F 42.8 °F 45% 29.77 in 10.0 mi ESE 21.9 mph 28.8 mph N/A   Clear
12:15 PM 66.2 °F 44.6 °F 46% 29.76 in 10.0 mi ESE 20.7 mph 27.6 mph N/A   Clear
12:35 PM 66.2 °F 44.6 °F 46% 29.75 in 10.0 mi ESE 21.9 mph 29.9 mph N/A   Clear
12:55 PM 68.0 °F 42.8 °F 40% 29.74 in 10.0 mi SE 18.4 mph 26.5 mph N/A   Clear
1:15 PM 68.0 °F 44.6 °F 43% 29.74 in 10.0 mi ESE 15.0 mph 29.9 mph N/A   Clear
1:35 PM 66.2 °F 44.6 °F 46% 29.72 in 10.0 mi SE 20.7 mph 27.6 mph N/A   Clear
1:55 PM 68.0 °F 44.6 °F 43% 29.72 in 10.0 mi ESE 18.4 mph 25.3 mph N/A   Clear
2:15 PM 69.8 °F 44.6 °F 40% 29.70 in 10.0 mi East 19.6 mph - N/A   Clear
2:35 PM 71.6 °F 46.4 °F 41% 29.68 in 10.0 mi SE 20.7 mph 28.8 mph N/A   Clear
3:15 PM 71.6 °F 46.4 °F 41% 29.67 in 10.0 mi SE 16.1 mph 28.8 mph N/A   Clear
3:35 PM 71.6 °F 46.4 °F 41% 29.65 in 10.0 mi ESE 23.0 mph 29.9 mph N/A   Clear
3:55 PM 73.4 °F 46.4 °F 38% 29.65 in 10.0 mi ESE 21.9 mph 31.1 mph N/A   Clear
4:15 PM 73.4 °F 46.4 °F 38% 29.63 in 10.0 mi ESE 21.9 mph 31.1 mph N/A   Clear
4:35 PM 73.4 °F 46.4 °F 38% 29.63 in 10.0 mi ESE 18.4 mph 27.6 mph N/A   Clear
4:55 PM 75.2 °F 48.2 °F 38% 29.63 in 10.0 mi SE 18.4 mph 27.6 mph N/A   Clear
5:15 PM 75.2 °F 48.2 °F 38% 29.63 in 10.0 mi SE 19.6 mph 28.8 mph N/A   Clear
5:35 PM 75.2 °F 50.0 °F 41% 29.62 in 9.0 mi ESE 16.1 mph 27.6 mph N/A   Clear
5:55 PM 75.2 °F 50.0 °F 41% 29.62 in 10.0 mi ESE 17.3 mph 25.3 mph N/A   Clear
6:15 PM 75.2 °F 50.0 °F 41% 29.62 in 10.0 mi SE 11.5 mph 24.2 mph N/A   Clear
6:35 PM 73.4 °F 50.0 °F 44% 29.61 in 10.0 mi ESE 15.0 mph 20.7 mph N/A   Partly Cloudy
6:55 PM 73.4 °F 51.8 °F 47% 29.61 in 10.0 mi ESE 12.7 mph 18.4 mph N/A   Clear
7:15 PM 73.4 °F 51.8 °F 47% 29.61 in 10.0 mi ESE 10.4 mph 16.1 mph N/A   Clear
7:35 PM 73.4 °F 50.0 °F 44% 29.62 in 10.0 mi East 11.5 mph - N/A   Clear
7:55 PM 73.4 °F 50.0 °F 44% 29.63 in 10.0 mi East 10.4 mph - N/A   Mostly Cloudy
8:15 PM 71.6 °F 50.0 °F 46% 29.63 in 10.0 mi East 8.1 mph - N/A   Mostly Cloudy
8:35 PM 71.6 °F 50.0 °F 46% 29.63 in 10.0 mi East 9.2 mph - N/A   Overcast
8:55 PM 71.6 °F 50.0 °F 46% 29.64 in 10.0 mi East 9.2 mph - N/A   Overcast
9:15 PM 71.6 °F 48.2 °F 43% 29.64 in 10.0 mi East 10.4 mph 16.1 mph N/A   Overcast
9:35 PM 69.8 °F 48.2 °F 46% 29.64 in 10.0 mi East 10.4 mph - N/A   Overcast
9:55 PM 69.8 °F 48.2 °F 46% 29.64 in 10.0 mi East 9.2 mph 15.0 mph N/A   Scattered Clouds
10:15 PM 68.0 °F 48.2 °F 49% 29.65 in 10.0 mi ENE 8.1 mph 13.8 mph N/A   Clear
10:55 PM 66.2 °F 46.4 °F 49% 29.64 in 10.0 mi East 9.2 mph 15.0 mph N/A   Clear
11:15 PM 66.2 °F 46.4 °F 49% 29.64 in 10.0 mi East 8.1 mph 15.0 mph N/A   Clear
11:35 PM 64.4 °F 44.6 °F 49% 29.64 in 10.0 mi East 9.2 mph 16.1 mph N/A   Clear
11:55 PM 62.6 °F 44.6 °F 52% 29.64 in 10.0 mi East 9.2 mph - N/A   Clear